[[{"header":{"parameterUnit":"m.s-1","parameterCategory":1,"la1":30.2992,"la2":30.254,"lo1":-89.0895,"lo2":-89.0443,"dy":0.0025,"dx":0.0025,"nx":19,"ny":19,"refTime":"2026-04-08T03:00:00:Z","depth":0,"parameterNumber":2,"parameterNumberName":"U-component_of_WINDS"},"data":[0,0,0,-6.0021,-6.0024,-6.0128,-6.0128,-6.0304,-6.0306,0,0,0,0,0,0,0,0,0,0,0,-6.0018,-6.002,-6.0021,-6.0025,-6.0128,-6.0128,-6.0303,-6.0306,0,0,0,0,0,0,0,0,0,0,0,-6.0016,-6.0019,-6.0022,-6.0025,-6.0128,-6.0128,-6.0303,-6.0209,0,0,0,0,0,0,0,0,0,0,-6.0101,-6.0124,-6.0018,-6.0022,-6.0026,-6.0128,-6.0128,-6.0204,-6.0215,-6.0276,0,-6.0337,0,-6.0325,-6.032,-6.0321,0,0,0,-6.0004,-6.0115,-6.0119,-6.0022,-6.0027,-6.0128,-6.0076,-6.021,-6.0222,-6.0291,-6.0339,-6.0344,-6.0328,-6.0322,-6.0323,-6.074,-6.0743,0,0,-5.9999,-6.005,-6.011,-6.0128,-6.0116,-6.0072,-6.0079,-6.0217,-6.0273,-6.034,-6.0348,-6.033,-6.0323,-6.0325,-6.0737,-6.0741,0,0,0,-5.9996,-6.0047,-6.0046,-6.0122,-6.0138,-6.0076,-6.0083,-6.0266,-6.0262,-6.0349,-6.0333,-6.0324,-6.0327,-6.0734,-6.0739,-6.0932,0,0,0,-5.9991,-6.0045,-6.0045,-6.0078,-6.0136,-6.0204,-6.0131,-6.0253,-6.0266,-6.0332,-6.0325,-6.0329,-6.0731,-6.0737,-6.092,-6.1015,0,0,0,-6.0002,-6.0046,-6.0071,-6.0081,-6.0127,-6.02,-6.0203,-6.0254,-6.0257,-6.0321,-6.033,-6.0729,-6.0736,-6.0909,-6.0997,-6.1141,0,0,0,-6.0027,-6.0241,-6.0075,-6.0307,-6.0127,-6.0319,-6.0201,-6.0342,-6.042,-6.0326,-6.0731,-6.0738,-6.0906,-6.0986,-6.1129,-6.1271,-6.1335,0,0,-6.0325,-6.0279,-6.0411,-6.0265,-6.0501,-6.0299,-6.0563,-6.0585,-6.0544,-6.0677,-6.0686,-6.0924,-6.0996,-6.1138,-6.1674,-6.1725,0,0,0,-6.0523,-6.0619,-6.067,-6.0747,-6.077,-6.0797,-6.0773,-6.0781,-6.0892,-6.0623,-6.1013,-6.1054,-6.1135,-6.1201,-6.1244,-6.1311,-6.0771,-6.077,-6.0769,-6.1019,-6.0955,-6.117,-6.1119,-6.1196,-6.1169,-6.1225,-6.1231,-6.1144,-6.1237,-6.1277,-6.161,-6.1688,-6.172,-6.1791,-6.1346,-6.1347,-6.1347,-6.1348,-6.1451,-6.1576,-6.1456,-6.1621,-6.1552,-6.169,-6.1673,-6.1607,-6.1725,-6.1574,-6.1643,-6.1484,-6.1779,-6.1837,-6.1362,-6.1359,-6.1357,-6.1356,-6.1355,-6.1769,-6.1818,-6.1825,-6.193,-6.2018,-6.1958,-6.2078,-6.201,-6.1947,-6.2015,-6.205,-6.2046,-6.2035,-6.2036,-6.2038,-6.2039,-6.204,-6.2041,-6.2041,-6.2096,-6.2097,-6.2207,-6.2249,-6.229,-6.2335,-6.2312,-6.235,-6.2375,-6.2316,-6.2316,-6.222,-6.1819,-6.172,-6.2059,-6.2056,-6.2053,-6.2052,-6.2051,-6.2558,-6.2443,-6.2612,-6.2653,-6.2697,-6.279,-6.2702,-6.2786,-6.2808,-6.2869,-6.2759,-6.2473,-6.242,-6.2385,-6.2302,-6.2771,-6.2771,-6.2771,-6.2771,-6.2826,-6.2793,-6.295,-6.3021,-6.3082,-6.302,-6.3213,-6.3198,-6.3163,-6.3173,-6.3095,-6.2979,-6.2947,-6.2913,-6.2866,-6.2788,-6.3371,-6.3371,-6.3372,-6.3106,-6.3076,-6.3254,-6.3218,-6.3248,-6.3276,-6.3455,-6.3541,-6.3478,-6.3395,-6.3179,-6.3153,-6.2966,-6.2909,-6.2821,-6.2751,-6.2606,0,0]},{"header":{"parameterUnit":"m.s-1","parameterCategory":1,"la1":30.2992,"la2":30.254,"lo1":-89.0895,"lo2":-89.0443,"dy":0.0025,"dx":0.0025,"nx":19,"ny":19,"refTime":"2026-04-08T03:00:00:Z","depth":0,"parameterNumber":3,"parameterNumberName":"V-component_of_WINDS"},"data":[0,0,0,0.7493,0.7491,0.7406,0.7406,0.7305,0.7304,0,0,0,0,0,0,0,0,0,0,0,0.7525,0.7524,0.7493,0.7491,0.7406,0.7406,0.7305,0.7304,0,0,0,0,0,0,0,0,0,0,0,0.7525,0.7525,0.7524,0.7491,0.7406,0.7406,0.7305,0.7366,0,0,0,0,0,0,0,0,0,0,0.7447,0.7484,0.7525,0.7524,0.749,0.7406,0.7406,0.7369,0.7362,0.7348,0,0.7339,0,0.732,0.7298,0.7298,0,0,0,0.7484,0.7489,0.7461,0.7524,0.7489,0.7406,0.7443,0.7365,0.7357,0.7339,0.7337,0.7333,0.7319,0.7298,0.7297,0.7243,0.7243,0,0,0.7489,0.7512,0.7466,0.7456,0.7473,0.7445,0.744,0.736,0.7359,0.7337,0.7331,0.7317,0.7297,0.7296,0.7243,0.7243,0,0,0,0.7507,0.7516,0.7489,0.7461,0.7445,0.7443,0.7437,0.7362,0.7352,0.733,0.7316,0.7296,0.7295,0.7243,0.7243,0.7269,0,0,0,0.7509,0.7526,0.7491,0.7505,0.7447,0.7403,0.7441,0.7357,0.7347,0.7316,0.7296,0.7294,0.7243,0.7243,0.7268,0.7277,0,0,0,0.7528,0.7528,0.7519,0.7506,0.7471,0.7404,0.7388,0.7355,0.7339,0.7298,0.7294,0.7243,0.7243,0.7268,0.7275,0.727,0,0,0,0.7553,0.7541,0.752,0.7501,0.7472,0.7422,0.7389,0.7349,0.7317,0.7296,0.7243,0.7243,0.7267,0.7274,0.727,0.727,0.7272,0,0,0.755,0.7541,0.7528,0.7507,0.7468,0.7433,0.7396,0.7342,0.7315,0.7268,0.7266,0.7269,0.7275,0.727,0.728,0.7283,0,0,0,0.7535,0.7526,0.751,0.7483,0.7445,0.7412,0.7362,0.7343,0.7303,0.7297,0.7265,0.7268,0.7264,0.7263,0.7265,0.726,0.7244,0.7244,0.7244,0.7561,0.7532,0.7509,0.747,0.7443,0.7395,0.737,0.7335,0.7308,0.7302,0.7287,0.7298,0.7297,0.7299,0.7294,0.7286,0.7286,0.7286,0.7286,0.7554,0.7536,0.7508,0.7475,0.7443,0.7414,0.7367,0.7351,0.7318,0.7305,0.73,0.7288,0.7302,0.7296,0.7288,0.7287,0.7287,0.7287,0.7287,0.7567,0.7554,0.7534,0.7493,0.7465,0.7425,0.7397,0.7368,0.734,0.7335,0.7317,0.7316,0.7311,0.7329,0.7329,0.7329,0.7329,0.7329,0.7329,0.7588,0.7565,0.7546,0.7508,0.7488,0.7458,0.7412,0.7391,0.7359,0.734,0.734,0.7315,0.731,0.7309,0.7329,0.7329,0.7329,0.7329,0.7329,0.7589,0.7586,0.7557,0.7538,0.7492,0.7466,0.7432,0.7392,0.737,0.7357,0.7335,0.7336,0.7323,0.7321,0.732,0.7342,0.7342,0.7342,0.7342,0.76,0.7593,0.7558,0.753,0.7498,0.7466,0.7433,0.7398,0.736,0.7344,0.7338,0.7334,0.7334,0.7321,0.7319,0.7317,0.7338,0.7338,0.7338,0.7599,0.7588,0.7567,0.7534,0.7497,0.7465,0.7434,0.74,0.7356,0.7337,0.7332,0.7332,0.7326,0.7326,0.7304,0.7302,0.7298,0,0]}]]